Date String (YYYY-MM-DD hh:mm:ss) UTC,Instrument flags,Ambient pressure (hPa),Sample flow (lpm),Bypass flow (lpm),Sample temperature (°C),Ambient temperature (°C),ASC tube jacket temperature (°C),LED temperature (°C),Box temperature (°C),Sample RH (%),Span deviation,Mass concentration (μg/m³),Mass concentration (μg/m³),Mass concentration (μg/m³)
DateTimeUTC,F1_M11,P_M11,Q1_M11,Q2_M11,T1_M11,T2_M11,T3_M11,T4_M11,T5_M11,U1_M11,ZSPAN_M11,X2_M11,X0_M11,X1_M11
2023-03-04 23:00:00,,0817.5,4.99,0.00,22.9,21.4,00.0,31.5,24.7,14.9,-001.1,0008.72,0012.84,0008.02
2023-03-04 23:01:00,,0817.4,5.00,0.00,22.9,21.4,00.0,31.5,24.7,15.0,-000.9,0008.65,0012.82,0008.03
2023-03-04 23:02:00,,0817.5,5.00,0.00,22.8,21.4,00.0,31.5,24.7,15.1,-000.6,0008.63,0012.80,0008.02
2023-03-04 23:03:00,,0817.5,5.01,0.00,22.8,21.3,00.0,31.5,24.7,15.1,-000.5,0008.63,0012.89,0008.00
2023-03-04 23:04:00,,0817.5,5.00,0.00,22.8,21.3,00.0,31.5,24.7,15.2,-000.5,0008.59,0013.07,0007.99
2023-03-04 23:05:00,,0817.5,5.01,0.00,22.8,21.3,00.0,31.5,24.7,15.3,-000.7,0008.57,0013.58,0007.97
2023-03-04 23:06:00,,0817.5,5.01,0.00,22.8,21.3,00.0,31.5,24.6,15.4,-000.8,0008.54,0013.55,0007.96
2023-03-04 23:07:00,,0817.4,5.00,0.00,22.8,21.3,00.0,31.5,24.6,15.3,-000.6,0008.50,0013.51,0007.94
2023-03-04 23:08:00,,0817.3,5.00,0.00,22.8,21.3,00.0,31.5,24.7,15.3,-000.5,0008.52,0013.61,0007.93
2023-03-04 23:09:00,,0817.3,5.00,0.00,22.8,21.2,00.0,31.5,24.7,15.5,-000.4,0008.52,0013.59,0007.91
2023-03-04 23:10:00,,0817.3,4.98,0.00,22.8,21.2,00.0,31.5,24.6,15.4,-000.1,0008.51,0013.44,0007.89
2023-03-04 23:11:00,,0817.3,5.00,0.00,22.8,21.2,00.0,31.5,24.6,15.5,0000.1,0008.44,0013.24,0007.85
2023-03-04 23:12:00,,0817.4,5.00,0.00,22.8,21.2,00.0,31.5,24.6,15.4,0000.0,0008.45,0013.19,0007.83
2023-03-04 23:13:00,,0817.5,5.00,0.00,22.8,21.2,00.0,31.5,24.6,15.4,0000.0,0008.45,0013.20,0007.80
2023-03-04 23:14:00,,0817.4,5.00,0.00,22.8,21.2,00.0,31.5,24.6,15.5,-000.0,0008.40,0013.07,0007.78
2023-03-04 23:15:00,,0817.5,5.00,0.00,22.8,21.2,00.0,31.5,24.6,15.6,0000.0,0008.37,0012.95,0007.75
2023-03-04 23:16:00,,0817.4,5.00,0.00,22.8,21.2,00.0,31.5,24.6,15.6,0000.2,0008.36,0012.36,0007.73
2023-03-04 23:17:00,,0817.4,5.00,0.00,22.8,21.2,00.0,31.5,24.6,15.6,0000.5,0008.33,0012.08,0007.72
2023-03-04 23:18:00,,0817.3,4.99,0.00,22.7,21.2,00.0,31.5,24.6,15.5,0000.7,0008.31,0012.05,0007.70
2023-03-04 23:19:00,,0817.3,5.00,0.00,22.7,21.2,00.0,31.5,24.6,15.6,0001.0,0008.29,0012.20,0007.69
2023-03-04 23:20:00,,0817.3,4.99,0.00,22.7,21.2,00.0,31.5,24.6,15.8,0001.2,0008.23,0012.21,0007.66
2023-03-04 23:21:00,,0817.3,4.99,0.00,22.7,21.2,00.0,31.5,24.6,15.7,0001.1,0008.19,0012.17,0007.64
2023-03-04 23:22:00,,0817.3,5.01,0.00,22.7,21.2,00.0,31.5,24.6,15.8,0000.9,0008.17,0012.17,0007.61
2023-03-04 23:23:00,,0817.3,5.01,0.00,22.7,21.2,00.0,31.5,24.6,15.8,0001.0,0008.18,0012.08,0007.59
2023-03-04 23:24:00,,0817.2,5.00,0.00,22.7,21.2,00.0,31.5,24.6,15.8,0000.9,0008.17,0012.00,0007.57
2023-03-04 23:25:00,,0817.2,4.99,0.00,22.7,21.2,00.0,31.5,24.6,15.8,0001.2,0008.09,0011.83,0007.54
2023-03-04 23:26:00,,0817.4,4.98,0.00,22.7,21.1,00.0,31.5,24.6,15.8,0001.2,0008.08,0011.84,0007.53
2023-03-04 23:27:00,,0817.3,5.00,0.00,22.7,21.1,00.0,31.5,24.5,15.8,0001.2,0008.05,0011.94,0007.52
2023-03-04 23:28:00,,0817.2,5.02,0.00,22.7,21.1,00.0,31.5,24.5,15.8,0001.0,0007.99,0011.96,0007.49
2023-03-04 23:29:00,,0817.1,5.00,0.00,22.7,21.1,00.0,31.4,24.5,15.9,0000.6,0007.98,0011.93,0007.48
2023-03-04 23:30:00,,0816.9,5.00,0.00,22.7,21.1,00.0,31.4,24.5,15.8,0000.2,0007.94,0011.72,0007.46
2023-03-04 23:31:00,,0816.8,4.98,0.00,22.7,21.4,00.0,31.4,24.6,15.8,-000.2,0007.95,0011.63,0007.44
2023-03-04 23:32:00,,0817.2,5.01,0.00,22.8,22.4,00.0,31.4,24.8,15.8,-000.5,0007.95,0011.68,0007.43
2023-03-04 23:33:00,,0817.1,5.06,0.00,22.9,23.2,00.0,31.5,24.9,15.8,-000.3,0007.98,0011.70,0007.43
2023-03-04 23:34:00,,0817.2,5.00,0.00,22.9,23.0,00.0,31.5,24.9,15.7,-000.2,0007.93,0011.61,0007.41
2023-03-04 23:35:00,,0817.3,4.97,0.00,22.9,22.7,00.0,31.5,24.9,15.7,-000.3,0007.87,0011.52,0007.38
2023-03-04 23:36:00,,0817.3,5.00,0.00,23.0,22.4,00.0,31.5,24.9,15.7,-000.4,0007.88,0011.63,0007.37
2023-03-04 23:37:00,,0817.2,5.00,0.00,23.0,22.2,00.0,31.6,24.8,15.8,-000.2,0007.88,0011.74,0007.37
2023-03-04 23:38:00,,0817.1,5.00,0.00,23.0,22.0,00.0,31.6,24.8,15.8,-000.3,0007.88,0011.58,0007.35
2023-03-04 23:39:00,,0817.1,5.00,0.00,23.0,21.8,00.0,31.6,24.8,15.8,-000.3,0007.88,0012.16,0007.34
2023-03-04 23:40:00,,0817.1,5.00,0.00,23.0,21.7,00.0,31.6,24.8,15.8,-000.3,0007.89,0012.62,0007.32
2023-03-04 23:41:00,,0817.2,5.00,0.00,22.9,21.6,00.0,31.6,24.8,15.8,-000.1,0007.93,0012.80,0007.31
2023-03-04 23:42:00,,0817.2,5.01,0.00,22.9,21.6,00.0,31.6,24.8,15.8,0000.2,0007.89,0012.68,0007.30
2023-03-04 23:43:00,,0817.2,5.01,0.00,22.9,21.5,00.0,31.6,24.8,15.8,0000.5,0007.89,0012.64,0007.30
2023-03-04 23:44:00,,0817.1,5.01,0.00,22.9,21.4,00.0,31.6,24.8,15.8,0000.5,0007.83,0012.59,0007.28
2023-03-04 23:45:00,,0817.1,4.99,0.00,22.9,21.4,00.0,31.6,24.8,15.8,0000.3,0007.85,0012.63,0007.30
2023-03-04 23:46:00,,0817.1,5.00,0.00,22.9,21.3,00.0,31.6,24.7,15.8,0000.1,0007.89,0012.68,0007.31
2023-03-04 23:47:00,,0817.1,4.99,0.00,22.9,21.3,00.0,31.6,24.7,15.8,0000.2,0007.89,0012.63,0007.31
2023-03-04 23:48:00,,0817.0,5.01,0.00,22.9,21.3,00.0,31.6,24.7,15.8,-000.1,0007.92,0012.59,0007.30
2023-03-04 23:49:00,,0817.1,5.00,0.00,22.9,21.2,00.0,31.6,24.7,15.8,-000.4,0007.93,0012.60,0007.31
2023-03-04 23:50:00,,0817.0,5.00,0.00,22.9,21.2,00.0,31.6,24.7,15.8,-000.4,0007.96,0012.01,0007.32
2023-03-04 23:51:00,,0817.0,5.01,0.00,22.9,21.2,00.0,31.6,24.7,15.8,-000.3,0007.92,0011.57,0007.30
2023-03-04 23:52:00,,0817.0,4.99,0.00,22.8,21.2,00.0,31.6,24.6,15.8,-000.5,0007.87,0011.37,0007.29
2023-03-04 23:53:00,,0817.0,5.01,0.00,22.8,21.1,00.0,31.6,24.6,15.9,-000.5,0007.87,0011.33,0007.28
2023-03-04 23:54:00,,0817.0,4.99,0.00,22.8,21.1,00.0,31.6,24.6,15.9,-000.2,0007.84,0011.21,0007.27
2023-03-04 23:55:00,,0817.0,5.00,0.00,22.8,21.1,00.0,31.6,24.6,15.8,-000.1,0007.85,0011.16,0007.26
2023-03-04 23:56:00,,0817.0,5.00,0.00,22.8,21.1,00.0,31.6,24.6,15.9,-000.0,0007.81,0011.16,0007.23
2023-03-04 23:57:00,,0817.1,5.00,0.00,22.8,21.1,00.0,31.6,24.5,16.0,-000.2,0007.77,0011.09,0007.21
2023-03-04 23:58:00,,0817.0,5.01,0.00,22.8,21.1,00.0,31.6,24.5,15.9,-000.8,0007.75,0011.20,0007.21
2023-03-04 23:59:00,,0816.9,5.01,0.00,22.8,21.0,00.0,31.5,24.5,15.9,-000.9,0007.70,0011.44,0007.19
